Location: ???? ??
(36.0534°N, 43.5630°E)
Time: 20:28:42
(UTC+00:00)

Cosmos 2227 Rocket - Pass Details

Date: 18 September 2019
Orbit: 837 x 847 km, 71.0° (Epoch: 21 October)

Event Time Altitude Azimuth Distance (km) Brightness Sun altitude
Rises 15:35:39 0° 150° (SSE) 3,376 5.0 -6.1°
Reaches altitude 10° 15:39:31 10° 123° (ESE) 2,450 4.1 -6.9°
Maximum altitude 15:41:56 13° 97° (E) 2,251 3.7 -7.4°
Drops below altitude 10° 15:44:21 10° 72° (ENE) 2,460 4.1 -7.9°
Sets 15:48:14 0° 45° (NE) 3,403 5.0 -8.7°
